Theta_e
276 275 273 271 271 271 273 272 269 270 274 273 273 274 276 278 276 275 274 275 275 276 279 279 280 279 279 279 279 279 280 280 280 279 278 279 278 280 281 282 283 283 283 284
275 271 271 274 274 273 272 271 268 271 274 272 271 272 275 277 276 276 275 274 275 275 277 279 279 278 278 278 278 279 279 279 279 279 279 279 278 279 280 281 281 282 282 282
271 270 276 276 272 274 269 270 268 270 271 271 269 270 271 274 276 276 276 276 275 276 276 276 277 277 277 277 278 279 278 279 279 279 279 279 279 278 277 278 279 280 281 281
270 273 275 272 272 273 273 271 272 272 270 267 269 265 268 271 274 276 277 275 275 275 276 276 277 277 277 277 278 279 279 279 279 278 278 276 276 275 276 276 278 279 280 279
270 270 271 271 272 274 272 273 272 272 269 268 266 266 268 270 271 275 277 276 276 276 276 276 276 278 278 278 277 277 278 278 278 277 276 276 275 276 276 275 277 277 278 278
270 272 271 271 274 274 275 272 273 270 268 261 265 266 268 268 271 272 277 277 277 275 275 276 277 278 277 278 278 277 277 277 277 276 276 275 274 275 275 275 275 276 276 277
270 270 270 274 271 273 273 269 264 262 259 264 266 264 269 272 273 274 276 277 276 276 275 275 275 276 277 277 277 277 277 276 276 276 275 275 275 275 274 274 275 275 275 275
266 266 269 273 270 269 270 267 264 258 262 265 268 265 271 272 274 275 276 277 277 276 276 275 276 276 276 278 277 277 278 277 276 276 276 275 275 275 275 274 274 274 274 275
263 267 270 273 272 270 268 266 268 260 259 260 267 269 274 274 273 273 274 275 275 276 275 276 276 276 276 277 277 277 277 278 277 276 276 275 275 275 274 274 274 274 275 276
269 264 271 271 271 270 268 271 265 263 258 256 264 263 269 272 274 274 273 273 274 275 275 275 275 276 276 277 277 277 277 277 278 277 276 276 275 275 275 275 275 275 275 276
263 267 267 270 266 266 266 264 265 265 263 260 260 266 268 271 273 273 274 274 273 274 276 275 275 276 276 276 276 276 276 277 277 277 277 276 276 276 275 276 275 275 275 275
268 265 260 265 267 268 266 265 266 263 261 260 262 265 273 273 274 273 275 276 273 275 275 274 275 275 276 276 276 276 276 276 277 277 277 277 276 276 275 275 275 275 273 275
268 263 258 265 265 266 261 267 269 266 265 261 261 268 273 273 273 273 275 274 275 275 274 275 275 275 275 275 275 275 276 276 277 276 276 276 276 275 274 275 275 275 272 271
273 257 262 263 264 261 259 260 268 263 258 262 267 268 271 271 272 273 274 275 275 276 276 275 275 275 275 276 275 274 275 276 276 276 275 275 275 275 274 275 274 274 273 271
267 260 256 260 264 262 261 259 264 264 266 264 271 269 270 272 272 273 273 273 275 276 276 275 275 275 274 274 274 275 275 275 275 275 275 275 276 275 274 274 274 273 273 272
262 258 257 257 266 266 262 262 261 267 268 267 269 269 273 270 269 271 274 274 275 275 276 277 277 277 277 276 274 276 273 274 275 275 275 276 275 275 274 274 273 273 272 272
261 259 257 257 264 263 261 261 265 265 262 269 266 273 271 269 273 273 273 274 275 275 276 276 276 277 277 274 277 273 272 271 271 272 275 275 275 274 274 273 272 272 271 271
258 255 254 255 257 257 268 267 266 268 270 268 269 271 269 269 269 272 273 273 275 276 276 277 276 276 276 275 275 274 275 275 275 275 275 275 275 274 274 272 271 270 270 268
265 259 252 256 250 264 268 265 263 264 267 269 271 272 268 267 267 271 275 274 275 275 276 276 276 272 274 275 275 275 274 274 274 274 274 274 274 272 271 271 269 267 265 263
267 263 259 249 253 255 263 264 266 266 264 266 269 270 268 268 264 268 270 274 275 276 276 277 276 275 275 275 275 274 274 272 271 273 273 273 272 272 270 270 268 267 262 263
260 255 256 248 252 260 266 267 266 262 266 267 268 269 268 269 270 270 271 271 275 276 276 275 274 275 276 276 275 274 272 270 273 271 271 271 270 270 269 267 266 264 261 262
261 258 256 251 250 258 268 268 267 271 267 269 268 268 270 270 271 271 270 272 274 273 275 275 274 274 274 272 273 271 270 272 270 269 269 269 267 269 269 266 265 263 261 259
261 264 261 263 264 265 270 272 273 270 270 271 270 270 271 272 271 272 272 272 268 269 273 272 271 270 264 265 267 269 270 269 268 267 267 266 264 267 267 265 262 261 260 260
263 263 262 265 265 268 270 273 274 272 271 273 273 272 272 271 272 272 272 270 269 269 268 268 267 267 266 266 268 266 268 268 265 265 265 262 262 262 261 264 264 262 259 258
266 266 263 263 268 270 268 266 267 270 269 268 270 268 267 269 267 267 267 266 266 266 266 266 265 265 265 265 265 265 265 265 264 264 262 260 261 261 261 262 262 263 262 263
267 265 266 268 265 266 266 264 265 265 265 266 266 266 265 265 264 264 264 264 263 263 263 263 263 263 263 262 262 263 263 263 261 262 264 262 262 261 262 260 260 267 270 271
Wind_Speed
5 6 2 1 2 2 5 2 1 1 3 2 6 7 8 9 7 9 8 8 8 8 6 6 5 5 5 4 4 5 5 6 4 3 3 3 3 4 7 7 10 11 11 12
6 2 1 1 3 3 2 2 2 1 1 0 4 11 10 10 10 10 11 9 9 6 7 7 6 5 3 2 2 3 5 5 4 3 2 1 1 2 2 4 6 9 10 11
4 0 2 1 3 3 2 2 2 1 2 0 5 9 5 6 5 7 8 8 7 11 10 7 7 6 3 2 2 2 2 3 4 5 3 3 2 2 3 4 5 7 9 9
5 2 1 3 3 2 2 0 2 2 2 4 3 8 6 6 9 8 14 11 10 10 7 6 7 6 6 4 2 1 1 3 4 5 4 5 3 3 3 2 3 5 7 8
2 2 3 3 1 3 1 1 3 2 3 2 1 1 9 3 8 19 17 14 13 12 10 10 9 8 7 5 5 3 2 1 1 3 3 3 3 1 2 2 4 4 4 5
2 1 3 3 2 2 4 3 4 4 3 3 2 4 8 7 9 5 12 14 14 11 10 8 7 6 5 5 4 4 4 4 3 2 1 2 2 2 3 4 3 4 3 3
1 1 1 2 5 4 3 4 4 7 5 7 1 1 13 9 8 6 15 15 14 12 10 9 9 8 7 8 7 6 6 6 6 6 5 4 2 1 1 2 2 4 3 3
5 6 3 1 2 6 3 5 6 7 3 5 3 8 11 7 3 5 5 10 13 13 12 11 10 9 9 9 8 8 8 7 7 7 6 5 4 2 1 1 1 2 2 3
5 1 2 3 2 2 4 4 4 7 2 4 5 10 12 4 7 4 5 7 13 15 13 12 9 9 8 8 9 9 8 7 6 7 5 5 4 4 3 2 1 2 3 4
2 4 3 0 1 3 5 3 4 3 1 5 6 7 9 5 4 6 7 9 9 10 12 9 8 9 7 7 7 7 7 7 6 6 5 5 5 5 4 3 3 2 3 3
4 5 2 4 5 8 2 1 3 2 4 6 2 9 8 6 4 7 8 7 8 10 12 10 8 7 7 5 7 7 7 7 6 5 5 6 5 6 5 4 4 3 2 3
3 6 4 7 1 2 3 6 6 6 6 2 2 14 1 5 5 5 7 7 6 6 8 7 7 7 7 7 6 7 6 6 6 5 5 6 6 5 5 5 5 3 3 2
6 1 3 7 5 5 2 5 4 4 3 7 6 11 1 3 6 4 5 6 5 6 6 6 6 7 7 7 6 7 6 7 5 4 5 5 6 6 6 6 4 4 3 3
4 3 8 9 8 5 2 3 5 6 4 4 15 9 8 5 5 6 4 5 8 8 9 8 6 7 7 6 6 6 6 6 4 4 5 6 6 7 6 5 5 5 4 3
5 5 2 4 3 3 4 5 8 10 9 9 12 12 7 8 8 7 6 4 6 8 8 7 7 6 5 6 5 5 6 5 4 5 5 7 5 6 5 5 5 5 4 4
3 2 2 5 1 6 7 4 8 15 8 16 20 27 7 7 4 4 6 5 7 7 6 6 5 5 6 5 5 5 5 5 3 5 7 6 5 5 6 6 6 5 5 4
5 7 4 7 4 6 11 13 18 6 5 12 12 22 3 4 6 7 8 9 11 8 7 6 7 6 3 4 4 5 5 2 3 4 6 6 6 6 6 6 5 6 5 3
6 5 4 4 4 4 7 4 6 14 10 15 13 16 4 5 4 6 8 6 9 7 7 6 4 3 4 2 3 2 3 4 4 7 6 7 6 7 6 5 6 5 4 4
2 5 3 5 4 10 6 4 7 9 11 11 21 19 3 2 4 10 9 8 8 7 7 7 5 4 4 4 3 2 3 5 6 7 7 8 6 6 5 6 6 4 3 3
4 5 5 3 6 9 7 3 3 3 7 4 7 8 5 3 2 7 3 5 7 5 4 6 5 3 2 4 2 3 5 4 7 7 8 6 6 7 6 6 6 4 3 4
4 1 6 2 5 13 8 4 4 7 10 2 4 4 6 6 7 5 2 1 4 5 6 1 3 1 4 4 1 4 4 6 7 6 6 6 6 6 5 4 4 4 3 2
10 10 6 4 2 13 8 6 7 7 2 3 2 3 6 5 6 4 4 3 4 3 4 6 4 3 5 5 4 3 4 5 5 6 7 7 5 4 4 6 4 3 3 3
4 10 10 14 13 4 9 3 2 3 2 4 1 2 6 5 4 5 4 6 5 6 6 7 5 4 3 4 3 7 8 8 8 8 9 7 4 5 5 5 5 3 3 4
6 4 3 2 6 12 9 6 2 1 3 4 5 5 4 4 5 5 6 6 7 7 8 8 7 7 7 6 7 4 9 9 7 11 9 5 5 4 3 3 4 4 4 3
5 8 7 7 6 4 4 6 6 5 9 9 8 10 9 7 9 9 7 8 8 8 8 7 9 8 9 10 11 10 10 10 11 10 6 4 4 4 4 5 4 5 4 6
7 9 7 9 2 2 3 5 8 8 9 9 8 8 10 10 9 9 7 8 9 10 10 9 10 10 11 12 12 12 10 10 10 9 6 3 3 3 4 3 4 11 15 16
Wind_Direction
10 75 190 168 66 79 119 148 204 309 346 292 242 264 226 202 203 190 197 194 198 194 188 168 166 153 140 68 54 40 34 13 21 7 7 13 19 12 27 19 16 16 14 15
32 91 59 56 54 88 93 124 231 318 346 52 334 269 231 201 214 192 190 201 201 191 188 192 179 160 124 135 81 51 42 30 27 25 9 26 349 353 30 2 12 15 14 15
125 112 311 120 45 125 50 186 193 264 320 356 325 279 221 224 190 188 212 197 188 193 193 200 200 197 178 186 167 85 52 44 42 33 14 17 25 22 358 6 9 5 11 14
79 312 88 79 81 15 204 120 105 119 82 247 18 282 282 223 224 212 209 198 198 196 191 190 198 209 209 221 223 263 11 31 50 34 44 49 49 20 354 334 336 357 5 7
232 65 71 87 38 336 181 140 104 89 99 343 268 13 267 132 235 224 212 198 203 195 187 193 199 204 209 205 212 229 260 299 21 50 62 60 49 13 292 330 345 351 351 360
110 95 56 101 60 32 148 74 47 61 74 5 256 160 270 200 214 204 199 204 194 188 191 193 196 192 210 207 211 221 229 247 224 194 165 126 68 357 5 356 2 349 338 339
354 111 109 141 90 5 68 64 345 350 10 230 135 135 248 257 227 222 198 193 189 181 179 182 187 194 199 199 208 213 212 231 215 208 205 198 194 190 324 343 340 344 344 351
163 308 163 71 123 169 145 139 158 215 215 281 356 242 256 224 262 249 243 196 176 177 181 184 189 193 200 202 200 205 204 217 205 208 215 205 212 202 233 255 322 337 337 322
115 285 33 41 71 86 220 191 175 101 84 39 230 287 297 240 266 272 217 169 183 182 178 183 188 197 203 205 207 202 207 221 216 218 217 219 222 225 243 270 291 311 327 332
171 16 357 90 105 49 138 198 78 1 210 273 283 279 242 309 309 238 225 207 196 185 176 178 190 201 211 209 209 207 210 220 223 222 218 223 225 223 229 231 265 293 317 330
127 114 321 23 207 175 91 294 31 115 148 179 275 264 215 229 324 284 251 228 195 184 183 182 200 205 210 209 209 217 218 224 237 236 233 232 229 227 224 230 242 252 280 324
207 132 176 219 314 22 164 194 157 133 247 238 156 267 307 264 287 300 265 211 191 191 182 182 201 204 212 217 218 222 224 222 231 231 238 238 227 222 222 229 232 211 234 287
204 282 24 334 349 1 229 208 159 120 108 210 140 267 156 273 295 301 240 221 185 175 180 199 212 218 224 227 230 231 225 230 238 232 243 251 233 219 222 225 217 206 213 232
101 86 170 185 202 140 225 252 194 139 133 174 232 301 274 272 276 287 266 203 199 191 195 202 216 224 225 227 233 232 237 224 220 231 249 259 242 223 221 221 214 206 205 218
115 198 182 274 230 181 225 185 194 203 205 183 274 228 253 240 249 258 233 209 193 205 199 203 209 220 233 234 231 230 238 221 208 252 261 261 257 227 220 217 215 213 213 225
7 233 126 298 282 225 259 184 220 227 237 261 267 275 194 243 238 256 242 205 208 195 191 207 214 204 222 220 230 226 229 234 207 252 262 264 249 230 224 220 214 209 216 225
134 136 93 271 337 321 293 205 202 190 203 212 226 250 201 265 231 243 240 215 211 206 217 211 202 206 223 225 216 223 223 204 222 243 261 254 241 237 233 219 208 215 222 217
133 93 79 228 0 292 251 172 166 209 236 217 263 260 223 235 262 273 246 223 211 208 209 208 200 205 229 219 220 231 213 240 271 266 260 259 242 241 240 205 210 204 199 207
105 115 84 140 200 296 291 186 159 164 275 215 226 256 229 276 337 276 218 210 201 195 203 204 193 184 193 223 236 202 258 263 260 259 258 253 233 237 224 221 212 187 179 194
76 66 121 95 157 231 233 244 163 136 300 252 195 247 171 115 44 267 257 181 205 221 185 190 179 164 202 262 232 211 249 248 261 258 257 257 231 227 223 219 192 175 174 201
137 353 177 193 234 284 232 182 139 90 238 217 184 214 160 196 205 244 276 155 205 205 203 160 111 224 269 306 319 249 254 258 268 273 269 259 237 229 217 185 163 167 185 189
164 153 187 85 93 281 157 84 177 215 316 191 186 220 220 262 307 309 304 23 28 340 12 26 2 334 11 17 29 311 297 285 289 293 282 262 229 214 186 179 173 168 167 208
242 186 182 186 206 237 213 198 204 93 102 300 126 255 232 249 278 342 336 11 26 31 33 30 13 344 352 6 32 339 321 322 310 303 283 266 230 209 183 178 183 184 187 209
253 165 198 101 238 225 234 270 35 19 251 322 339 335 9 320 2 18 46 38 32 31 22 359 353 359 349 360 347 296 318 313 304 295 277 257 227 220 205 192 188 196 199 217
169 136 184 265 275 260 229 50 7 37 35 27 38 46 30 24 36 17 18 16 11 1 359 355 353 347 341 339 334 329 326 325 311 298 280 258 229 213 220 224 208 220 207 208
185 183 184 242 134 130 85 50 14 48 34 24 26 31 43 37 26 11 15 11 2 350 348 349 348 342 339 336 328 323 326 330 313 301 292 245 235 231 236 230 270 261 255 253